User: anonymous
Location: Unspecified
(0.0000°N, 0.0000°E)
Time: 02:20:33
(UTC+02:00)
Language:

Palapa 6 Rocket - Orbit

View from above orbital plane
View from above orbital plane
View from above satellite
View from above satellite

Ground track
Ground track

The orbit data is extracted from the following two-line orbital elements,

1 20571U 90034B   14273.56478605  .00001088  00000-0  11955-3 0  5424
2 20571 022.7459 331.8084 0517628 078.6335 033.2485 14.09724759251948
Epoch (UTC): 30 September 2014 13:33:17
Eccentricity: 0.0517628
inclination: 22.7459°
perigee height: 485 km
apogee height: 1235 km
right ascension of ascending node: 331.8084°
argument of perigee: 78.6335°
revolutions per day: 14.09724759
mean anomaly at epoch: 33.2485°
orbit number at epoch: 25194

The dashed part of the orbit path shows where the satellite is in the earth's shadow,  

DLR